Location: Jackson Park
(37.2862°N, 79.9123°W)
Time: 11:02:45
(UTC+00:00)

ACS3 Solar Sail - Visible Passes

Search period start: 18 April 2026 00:00
Search period end: 28 April 2026 00:00
Orbit: 872 x 975 km, 97.2° (Epoch: 17 April)

Date Brightness Start Highest point End Pass type
(mag) Time Alt. Az. Time Alt. Az. Time Alt. Az.
18 Apr 3.7 05:47:57 10° NNE 05:50:27 23° NE 05:50:27 23° NE visible
18 Apr 3.2 07:30:35 10° N 07:34:00 26° NW 07:34:00 26° NW visible
19 Apr 3.4 05:57:12 10° NNE 06:00:05 27° NE 06:00:05 27° NE visible
19 Apr 3.3 07:40:16 10° NNW 07:43:37 23° NW 07:43:37 23° NW visible
20 Apr 3.2 06:06:24 10° NNE 06:09:37 32° NE 06:09:37 32° NE visible
20 Apr 3.4 07:49:55 10° NNW 07:53:09 20° NW 07:53:09 20° NW visible
21 Apr 3.0 06:15:35 10° NNE 06:19:05 36° NNE 06:19:05 36° NNE visible
21 Apr 3.6 07:59:36 10° NNW 08:02:36 17° NW 08:02:36 17° NW visible
22 Apr 2.9 06:24:43 10° NNE 06:28:27 40° NNE 06:28:27 40° NNE visible
22 Apr 3.7 08:09:23 10° NNW 08:11:58 14° WNW 08:11:58 14° WNW visible
23 Apr 2.7 06:33:48 10° N 06:37:43 43° N 06:37:43 43° N visible
23 Apr 3.8 08:19:27 10° NW 08:21:14 11° WNW 08:21:14 11° WNW visible
24 Apr 4.1 05:02:24 10° NE 05:03:24 13° ENE 05:03:24 13° ENE visible
24 Apr 2.7 06:42:49 10° N 06:46:55 44° N 06:46:55 44° N visible
25 Apr 4.0 05:10:45 10° NE 05:12:31 16° ENE 05:12:31 16° ENE visible
25 Apr 2.6 06:51:49 10° N 06:56:01 42° NNW 06:56:01 42° NNW visible
26 Apr 3.8 05:19:11 10° NE 05:21:33 19° ENE 05:21:33 19° ENE visible
26 Apr 2.7 07:00:45 10° N 07:05:03 39° NW 07:05:03 39° NW visible
27 Apr 3.6 05:27:37 10° NE 05:30:29 23° ENE 05:30:29 23° ENE visible
27 Apr 2.8 07:09:37 10° N 07:13:58 35° NW 07:13:58 35° NW visible
